Погода в Трали

Ирландия     52°16′05″N   9°42′01″W
темп.,
°C
ветер,
м/с
пор.,
м/с
влажн.,
%
обл.,
%
осадки,
мм/ч
давл.,
гПа
погр.,
м
12 августа, пт
пт1201:00+14св11820 0.0 102213
04:00+14вюв11830 0.0 102111
07:00+14вюв22833 0.0 102019
10:00+21в11600 0.0 1020272
13:00+26сз11450 0.0 1018965
16:00+25сз32537 0.0 1018461
19:00+22ссз23675 0.0 1018242
22:00+16ссз11885 0.0 101811
13 августа, сб
сб1301:00+16юв11860 0.0 101711
04:00+15вюв11870 0.0 101611
07:00+15вюв11833 0.0 101611
10:00+22всв12597 0.0 1016272
13:00+26ссз224815 0.0 1015896
16:00+25ссз33554 0.0 1014493
19:00+22ссз34700 0.0 1013223
22:00+17сз11935 0.0 101414
14 августа, вс
вс1401:00+16сз119545 0.1 101314
04:00+16сз119670 0.1 101215
07:00+16ссз229459 0.1 101130
10:00+19ссз238673 1.4 1011308
13:00+21сз3373100 1.9 1010502
16:00+18сз3485100 1.6 1010406
19:00+17сз3490100 2.4 1008359
22:00+15сз3496100 0.0 1008151
15 августа, пн
пн1501:00+14зсз349641 0.0 1007139
04:00+14зсз249497 0.0 1006144
07:00+14з129547 0.1 100684
10:00+16зсз1187100 0.1 1006408
13:00+17ссз3381100 0.4 1006632
16:00+17сз3475100 0.4 1006889
19:00+16ссз4586100 1.0 1007511
22:00+14с4793100 1.0 1009429
16 августа, вт
вт1601:00+14с4892100 1.5 1010554
04:00+14с51091100 0.4 1010729
07:00+13с5989100 0.8 1011648
10:00+14с5880100 0.2 10131035
13:00+17с796018 0.2 10131333
16:00+17ссз896462 0.1 10141345
19:00+15ссз810721 0.1 1015885
22:00+14с6107323 0.0 1016556